Weather History for KCVX - March, 2012

Change the Weather History Date:

Wednesday, March 14, 2012

  Actual Average Record
Temperature  
Mean Temperature 52 °F -  
Max Temperature 74 °F 35 °F 74 °F (2012)
Min Temperature 29 °F 22 °F 1 °F (2005)
Degree Days  
Heating Degree Days 14    
Growing Degree Days 2 (Base 50)    
Moisture  
Dew Point 34 °F    
Average Humidity 65    
Maximum Humidity 94    
Minimum Humidity 30    
Precipitation  
Precipitation 0.00 in - - ()
Sea Level Pressure  
Sea Level Pressure 30.00 in    
Wind  
Wind Speed 5 mph (SE)    
Max Wind Speed 13 mph    
Max Gust Speed 17 mph    
Visibility 10 miles    
Events      
Averages and records for this station are not official NWS values.
T = Trace of Precipitation, MM = Missing Value Source: NWS Daily Summary

Daily Weather History Graph

Daily Weather History Graph

Search for Another Location

Airport or City:

Trip Planner

Search our weather history database for the weather conditions in past years. The results will help you decide how hot, cold, wet, or windy it might be!

Date:

Astronomy

Mar. 14, 2012 Rise Set
Actual Time 7:54 AM EDT 7:46 PM EDT
Civil Twilight 7:25 AM EDT 8:15 PM EDT
Nautical Twilight 6:50 AM EDT 8:50 PM EDT
Astronomical Twilight 6:16 AM EDT 9:25 PM EDT
Moon 2:39 AM EDT (3/14) 11:45 AM EDT (3/14)
Length of Visible Light 12h 50m
Length of Day
11h 51m
Waning Gibbous, 54% of the Moon is Illuminated
Mar 14
Waning Gibbous
Mar 14
Last Quarter
Mar 22
New
Mar 30
First Quarter
Apr 6
Full

Hourly Weather History & Observations

Time (EDT) Temp. Windchill Dew Point Humidity Pressure Visibility Wind Dir Wind Speed Gust Speed Precip Events Conditions
12:15 AM 30.9 °F - 29.5 °F 94% 30.06 in 10.0 mi Calm Calm - N/A   Clear
12:34 AM 31.6 °F 28.3 °F 30.2 °F 94% 30.06 in 10.0 mi SSE 3.5 mph - N/A   Clear
12:55 AM 31.5 °F 28.1 °F 29.5 °F 92% 30.06 in 10.0 mi SE 3.5 mph - N/A   Clear
1:14 AM 30.9 °F - 28.8 °F 92% 30.06 in 10.0 mi Calm Calm - N/A   Clear
1:34 AM 30.2 °F - 28.4 °F 93% 30.07 in 10.0 mi Calm Calm - N/A   Clear
1:54 AM 30.6 °F 27.1 °F 28.4 °F 92% 30.07 in 10.0 mi East 3.5 mph - N/A   Clear
2:15 AM 29.5 °F 25.9 °F 28.0 °F 94% 30.07 in 10.0 mi East 3.5 mph - N/A   Clear
2:34 AM 29.8 °F 26.3 °F 28.0 °F 93% 30.07 in 10.0 mi SE 3.5 mph - N/A   Clear
2:55 AM 29.3 °F 25.6 °F 27.7 °F 94% 30.07 in 10.0 mi ESE 3.5 mph - N/A   Clear
3:14 AM 30.6 °F 27.1 °F 28.8 °F 93% 30.07 in 10.0 mi East 3.5 mph - N/A   Clear
3:35 AM 30.7 °F 27.3 °F 28.8 °F 92% 30.06 in 10.0 mi ESE 3.5 mph - N/A   Clear
3:55 AM 30.4 °F 26.9 °F 28.0 °F 91% 30.07 in 10.0 mi ESE 3.5 mph - N/A   Clear
4:14 AM 30.0 °F 26.5 °F 27.9 °F 92% 30.07 in 10.0 mi East 3.5 mph - N/A   Clear
4:35 AM 30.2 °F 26.7 °F 27.9 °F 91% 30.07 in 10.0 mi East 3.5 mph - N/A   Clear
4:55 AM 30.2 °F 25.4 °F 27.5 °F 90% 30.07 in 10.0 mi East 4.6 mph - N/A   Clear
5:14 AM 30.7 °F 26.0 °F 27.3 °F 87% 30.06 in 10.0 mi ESE 4.6 mph - N/A   Clear
5:35 AM 29.8 °F 26.3 °F 27.0 °F 89% 30.07 in 10.0 mi ESE 3.5 mph - N/A   Clear
5:54 AM 30.4 °F 25.6 °F 27.5 °F 89% 30.07 in 10.0 mi ESE 4.6 mph - N/A   Clear
6:15 AM 29.5 °F 25.9 °F 27.3 °F 92% 30.07 in 10.0 mi ESE 3.5 mph - N/A   Clear
6:35 AM 31.6 °F 26.0 °F 27.5 °F 85% 30.07 in 10.0 mi ESE 5.8 mph - N/A   Clear
6:54 AM 31.1 °F 27.7 °F 27.5 °F 87% 30.07 in 10.0 mi ESE 3.5 mph - N/A   Clear
7:15 AM 31.8 °F 26.2 °F 27.3 °F 83% 30.07 in 10.0 mi ESE 5.8 mph - N/A   Clear
7:34 AM 31.8 °F 27.3 °F 27.0 °F 82% 30.05 in 10.0 mi ESE 4.6 mph - N/A   Clear
8:15 AM 32.0 °F 27.5 °F 27.1 °F 82% 30.06 in 10.0 mi ESE 4.6 mph - N/A   Clear
8:35 AM 32.7 °F 28.3 °F 27.5 °F 81% 30.06 in 10.0 mi ESE 4.6 mph - N/A   Clear
8:55 AM 33.1 °F 28.7 °F 28.4 °F 83% 30.06 in 10.0 mi SE 4.6 mph - N/A   Clear
9:14 AM 36.3 °F 31.6 °F 29.1 °F 75% 30.06 in 10.0 mi ESE 5.8 mph - N/A   Clear
9:35 AM 37.8 °F 33.3 °F 29.8 °F 73% 30.06 in 10.0 mi ESE 5.8 mph - N/A   Clear
9:55 AM 39.6 °F 35.4 °F 30.7 °F 71% 30.05 in 10.0 mi ESE 5.8 mph - N/A   Clear
10:15 AM 41.4 °F - 31.8 °F 69% 30.05 in - North - - N/A   Unknown
10:34 AM 44.6 °F 40.7 °F 32.2 °F 62% 30.04 in 10.0 mi East 6.9 mph - N/A   Clear
10:55 AM 46.9 °F - 32.2 °F 57% 30.03 in 10.0 mi East 6.9 mph - N/A   Clear
11:15 AM 49.6 °F - 32.9 °F 53% 30.02 in 10.0 mi East 6.9 mph - N/A   Clear
11:34 AM 51.8 °F - 33.1 °F 49% 30.01 in 10.0 mi East 8.1 mph - N/A   Clear
11:55 AM 53.2 °F - 32.0 °F 44% 30.00 in 10.0 mi East 12.7 mph - N/A   Clear
12:15 PM - - - N/A% - - North - - N/A   Unknown
12:34 PM - - - N/A% - - North - - N/A   Unknown
12:55 PM 62.8 °F - 32.9 °F 33% 29.96 in 10.0 mi SE 10.4 mph - N/A   Clear
1:14 PM 65.8 °F - 33.6 °F 30% 29.95 in 10.0 mi ESE 9.2 mph 17.3 mph N/A   Clear
1:35 PM 67.1 °F - 35.1 °F 31% 29.94 in 10.0 mi ESE 10.4 mph - N/A   Clear
1:55 PM 68.4 °F - 36.7 °F 31% 29.94 in 10.0 mi SE 9.2 mph - N/A   Clear
2:14 PM 71.4 °F - 41.5 °F 34% 29.93 in 10.0 mi SSE 8.1 mph - N/A   Clear
2:35 PM 71.4 °F - 43.0 °F 36% 29.93 in 10.0 mi SSE 9.2 mph - N/A   Clear
2:55 PM 72.3 °F - 41.9 °F 33% 29.92 in 10.0 mi SSE 9.2 mph - N/A   Clear
3:14 PM 72.9 °F - 42.1 °F 33% 29.91 in 10.0 mi SSE 8.1 mph - N/A   Clear
3:35 PM 72.5 °F - 41.0 °F 32% 29.91 in 10.0 mi SSE 8.1 mph - N/A   Clear
3:55 PM 72.9 °F - 41.4 °F 32% 29.90 in 10.0 mi South 6.9 mph - N/A   Clear
4:14 PM 72.9 °F - 42.1 °F 33% 29.89 in 10.0 mi South 6.9 mph - N/A   Clear
4:35 PM 73.6 °F - 41.7 °F 32% 29.89 in 10.0 mi SSE 10.4 mph - N/A   Clear
4:55 PM 74.3 °F - 42.6 °F 32% 29.88 in 10.0 mi SSE 8.1 mph - N/A   Clear
5:15 PM 74.5 °F - 43.0 °F 32% 29.87 in 10.0 mi SSE 10.4 mph - N/A   Clear
5:35 PM 74.8 °F - 43.9 °F 33% 29.87 in 10.0 mi SSE 9.2 mph 17.3 mph N/A   Clear
5:55 PM 74.8 °F - 44.6 °F 34% 29.86 in 10.0 mi SSE 8.1 mph - N/A   Clear
6:15 PM 74.7 °F - 45.7 °F 36% 29.86 in 10.0 mi SSE 10.4 mph - N/A   Clear
6:35 PM 74.3 °F - 46.6 °F 37% 29.85 in 10.0 mi SSE 10.4 mph - N/A   Clear
6:54 PM 73.6 °F - 47.3 °F 39% 29.85 in 10.0 mi SSE 6.9 mph - N/A   Clear
7:15 PM 54.5 °F - 39.2 °F 56% 29.86 in 10.0 mi WNW 4.6 mph - N/A   Clear
7:35 PM 53.4 °F - 41.2 °F 63% 29.90 in 10.0 mi West 12.7 mph - N/A   Clear
7:54 PM 46.6 °F - 37.2 °F 70% 29.91 in 10.0 mi WNW 5.8 mph - N/A   Clear
8:35 PM 42.1 °F - 34.5 °F 75% 29.92 in 10.0 mi Calm Calm - N/A   Clear
8:54 PM 44.6 °F 43.1 °F 35.6 °F 71% 29.92 in 10.0 mi ESE 3.5 mph - N/A   Clear
9:15 PM 46.6 °F - 36.5 °F 68% 29.92 in 10.0 mi SE 4.6 mph - N/A   Clear
9:35 PM 48.4 °F - 37.6 °F 66% 29.91 in 10.0 mi SE 6.9 mph - N/A   Scattered Clouds
9:54 PM 50.7 °F - 38.5 °F 63% 29.91 in 10.0 mi SE 5.8 mph - N/A   Mostly Cloudy
10:15 PM 50.4 °F - 39.4 °F 66% 29.91 in 10.0 mi SE 5.8 mph - N/A   Scattered Clouds
10:34 PM 53.2 °F - 41.2 °F 64% 29.91 in 10.0 mi SE 6.9 mph - N/A   Scattered Clouds
10:55 PM 53.2 °F - 41.9 °F 65% 29.91 in 10.0 mi SE 4.6 mph - N/A   Mostly Cloudy
11:15 PM 53.1 °F - 42.3 °F 67% 29.91 in 10.0 mi ESE 5.8 mph - N/A   Scattered Clouds
11:35 PM 49.6 °F - 40.5 °F 71% 29.91 in 10.0 mi SE 4.6 mph - N/A   Scattered Clouds
11:55 PM 49.5 °F - 41.0 °F 73% 29.90 in 10.0 mi South 4.6 mph - N/A   Scattered Clouds